Погода в Демидове

Россия / Владимирская область     55°23′56″N   40°18′01″E
темп.,
°C
ветер,
м/с
пор.,
м/с
влажн.,
%
обл.,
%
осадки,
мм/ч
давл.,
гПа
погр.,
м
9 декабря, чт
чт900:00−6ссв4895100 1.7 1020259
03:00−7ссв4994100 2.5 1020284
06:00−7ссв41095100 1.5 1021309
09:00−7ссв4995100 2.8 1023324
12:00−6ссв389299 0.4 1023312
15:00−8ссв399347 0.4 1025319
18:00−12с310945 0.0 1027233
21:00−14ссв29955 0.0 1029171
10 декабря, пт
пт1000:00−15ссв28965 0.0 1030151
03:00−17ссв27975 0.0 1032121
06:00−17св27975 0.0 1032117
09:00−17св27975 0.0 1034118
12:00−11всв36895 0.0 1034205
15:00−11всв27925 0.0 1035186
18:00−13всв310935 0.0 1035189
21:00−15в29935 0.0 1036156
11 декабря, сб
сб1100:00−15в39935 0.0 1036161
03:00−15в29945 0.0 1037139
06:00−16в28935 0.0 1037140
09:00−15в310925 0.0 1037176
12:00−10вюв310845 0.0 1037257
15:00−9в39885 0.0 1036246
18:00−12в311925 0.0 1037206
21:00−12вюв311905 0.0 1037212
12 декабря, вс
вс1200:00−13вюв310905 0.0 1037168
03:00−13вюв29915 0.0 1038148
06:00−11юв398999 0.0 1037162
09:00−11юв279012 0.0 1038127
12:00−6юв288361 0.0 1038205
15:00−7вюв269081 0.0 1037125
18:00−9юв279245 0.0 1038127
21:00−9юв289175 0.0 1037138
13 декабря, пн
пн1300:00−10юв279250 0.0 1037111
03:00−10юв2692100 0.0 1036104
06:00−8юв3888100 0.0 1035162
09:00−8юв3988100 0.0 1035192
12:00−5ююв31083100 0.0 1034320
15:00−4ююв3984100 0.0 1033287
18:00−5юв3984100 0.0 1033248
21:00−5ююв2984100 0.0 1032243